Location: Boneville
(33.4331°N, 82.4399°W)
Time: 22:26:49
(UTC+00:00)

Hubble Space Telescope - Pass Details

Date: 27 September 2024
Orbit: 504 x 508 km, 28.5° (Epoch: 06 October)

Event Time Altitude Azimuth Distance (km) Brightness Sun altitude
Exits shadow 09:20:49 14° 148° (SSE) 1,455 3.1 -25.8°
Drops below altitude 10° 09:22:24 10° 124° (SE) 1,696 3.8 -25.4°
Sets 09:25:26 0° 100° (E) 2,582 5.3 -24.8°
